sat.trackr.live / text

‹ back to catalog

STARLINK-32050

NORAD 60137 · 2024-120C

PAYLOAD ACTIVE UNKNOWN

§ Identity

Operator
Country
US
Launch date
2024-06-27
Launch site
AFETR
Launch vehicle
Mass (kg)
RCS (m²)

Purposes: comms

External: N2YO · Heavens-Above · Gunter

§ Orbital elements

Epoch: 2026-09-21T21:24:55.107072Z

Period
93.85 min
Inclination
53.1591°
Eccentricity
0.0001281
Mean motion
15.34392061 rev/d
Perigee alt
461.9 km
Apogee alt
463.6 km
Semi-major
6,840.9 km
B*
-7.5231e-6
RAAN
125.1852°
Arg perigee
86.2079°
Mean anomaly
273.9071°
Rev number
12,646

§ Raw data

STARLINK-320501 60137U 24120C   26264.89230448 -.00000630  00000+0 -75231-5 0  99972 60137  53.1591 125.1852 0001281  86.2079 273.9071 15.34392061126463

JSON: /api/v1/satellites/60137 · /tle

For live sub-satellite position, see the globe view (requires WebGL).

§ Visibility from observer

Set your observer location to see the next 7 days of passes ≥ 10°. The values pass through the URL so the page stays shareable.

No JS? Fill the form by hand. The geolocation button needs JavaScript.